Погода в Пало-Альто

США     37°25′39″N   122°07′34″W
темп.,
°C
ветер,
м/с
пор.,
м/с
влажн.,
%
обл.,
%
осадки,
мм/ч
давл.,
гПа
погр.,
м
19 апреля, пн
пн1923:00+10юз33795 0.0 102063
02:00+9юз339181 0.0 102083
05:00+9юз2292100 0.0 101979
08:00+10юз238632 0.0 1020226
11:00+17з22570 0.0 1019315
14:00+17з345391 0.0 1019358
17:00+16з355313 0.0 1018309
20:00+10юз358244 0.0 1018129
20 апреля, вт
вт2023:00+9юз359122 0.0 1018190
02:00+9юз359030 0.0 1017167
05:00+11зюз3584100 0.0 1016374
08:00+11юз2381100 0.0 1015342
11:00+16з33570 0.0 1014455
14:00+15з79642 0.0 1013638
17:00+13з7107336 0.0 1012700
20:00+11ююз228633 0.0 1011212
21 апреля, ср
ср2123:00+9ююз239425 0.0 1011108
02:00+9ююз239273 0.0 1010234
05:00+9ю22938 0.0 101075
08:00+11ююз11845 0.0 1012121
11:00+17зсз33540 0.0 1012517
14:00+19зсз44450 0.0 1010537
17:00+14зюз45667 0.0 1010306
20:00+10зюз238821 0.0 1010101
22 апреля, чт
чт2223:00+9ююз239126 0.0 1011108
02:00+8юз229211 0.0 101182
05:00+7ююз22913 0.0 101261
08:00+10ю12782 0.0 1013152
11:00+17сз225448 0.0 1013409
14:00+19зсз44515 0.0 1012484
17:00+17зюз34580 0.0 1011290
20:00+10зюз348919 0.0 1013125
23 апреля, пт
пт2323:00+9юз339038 0.0 1014165
02:00+8юз3391100 0.0 1014128
05:00+8юз339186 0.0 1014144
08:00+10ююз238224 0.0 1014295
11:00+15зюз33623 0.0 1015477
14:00+16зюз45570 0.0 1014449
17:00+14зюз456216 0.0 1014403
20:00+9юз3486100 0.0 1016184